Location: Allos
(44.2333°N, 6.6333°E)
Time: 12:47:14
(UTC+00:00)

Cosmos 2112 Rocket - Pass Details

Date: 01 December 2020
Orbit: 756 x 787 km, 74.0° (Epoch: 25 January)

Event Time Altitude Azimuth Distance (km) Brightness Sun altitude
Rises 18:02:07 0° 188° (S) 3,227 7.5 -22.0°
Reaches altitude 10° 18:04:29 10° 184° (S) 2,309 6.6 -22.4°
Maximum altitude 18:09:38 60° 106° (ESE) 890 4.0 -23.3°
Enters shadow 18:09:51 59° 95° (E) 895 4.0 -23.3°
